owner,sensor,date,latitude,longitude,relative_humidity,qcFlag 
DISL,ioos:station:DISL:PPTA:1,2019-08-01T00:04:00Z,30.2791,-87.5561,70.92,11111222 
DISL,ioos:station:DISL:PPTA:1,2019-08-01T01:04:00Z,30.2791,-87.5561,71.62,11111222 
DISL,ioos:station:DISL:PPTA:1,2019-08-01T02:04:00Z,30.2791,-87.5561,73.01,11111222 
DISL,ioos:station:DISL:PPTA:1,2019-08-01T03:04:00Z,30.2791,-87.5561,73.86,11111222 
DISL,ioos:station:DISL:PPTA:1,2019-08-01T04:04:00Z,30.2791,-87.5561,75.21,11111222 
DISL,ioos:station:DISL:PPTA:1,2019-08-01T05:04:00Z,30.2791,-87.5561,75.89,11111222 
DISL,ioos:station:DISL:PPTA:1,2019-08-01T06:04:00Z,30.2791,-87.5561,75.21,11111222 
DISL,ioos:station:DISL:PPTA:1,2019-08-01T07:04:00Z,30.2791,-87.5561,77.87,11111222 
DISL,ioos:station:DISL:PPTA:1,2019-08-01T08:04:00Z,30.2791,-87.5561,84.5,11111222 
DISL,ioos:station:DISL:PPTA:1,2019-08-01T09:04:00Z,30.2791,-87.5561,87.3,11111222 
DISL,ioos:station:DISL:PPTA:1,2019-08-01T10:04:00Z,30.2791,-87.5561,87.7,11111222 
DISL,ioos:station:DISL:PPTA:1,2019-08-01T11:04:00Z,30.2791,-87.5561,86.2,11111222 
DISL,ioos:station:DISL:PPTA:1,2019-08-01T12:04:00Z,30.2791,-87.5561,82.6,11111222 
DISL,ioos:station:DISL:PPTA:1,2019-08-01T13:04:00Z,30.2791,-87.5561,77.62,11111222 
DISL,ioos:station:DISL:PPTA:1,2019-08-01T14:04:00Z,30.2791,-87.5561,71.12,11111222 
DISL,ioos:station:DISL:PPTA:1,2019-08-01T15:04:00Z,30.2791,-87.5561,64.28,11111222 
DISL,ioos:station:DISL:PPTA:1,2019-08-01T16:04:00Z,30.2791,-87.5561,60.14,11111222 
DISL,ioos:station:DISL:PPTA:1,2019-08-01T17:04:00Z,30.2791,-87.5561,61.25,11111222 
DISL,ioos:station:DISL:PPTA:1,2019-08-01T18:04:00Z,30.2791,-87.5561,64.58,11111222 
DISL,ioos:station:DISL:PPTA:1,2019-08-01T19:04:00Z,30.2791,-87.5561,60.14,11111222 
DISL,ioos:station:DISL:PPTA:1,2019-08-01T20:04:00Z,30.2791,-87.5561,62.29,11111222 
DISL,ioos:station:DISL:PPTA:1,2019-08-01T21:04:00Z,30.2791,-87.5561,62.58,11111222 
DISL,ioos:station:DISL:PPTA:1,2019-08-01T22:04:00Z,30.2791,-87.5561,68.86,11111222 
DISL,ioos:station:DISL:PPTA:1,2019-08-01T23:04:00Z,30.2791,-87.5561,67.98,11111222 
DISL,ioos:station:DISL:PPTA:1,2019-08-02T00:04:00Z,30.2791,-87.5561,67.85,11111222 
DISL,ioos:station:DISL:PPTA:1,2019-08-02T01:04:00Z,30.2791,-87.5561,72.5,11111222 
DISL,ioos:station:DISL:PPTA:1,2019-08-02T02:04:00Z,30.2791,-87.5561,75.32,11111222 
DISL,ioos:station:DISL:PPTA:1,2019-08-02T03:04:00Z,30.2791,-87.5561,77.64,11111222 
DISL,ioos:station:DISL:PPTA:1,2019-08-02T04:04:00Z,30.2791,-87.5561,75.26,11111222 
DISL,ioos:station:DISL:PPTA:1,2019-08-02T05:04:00Z,30.2791,-87.5561,79.85,11111222 
DISL,ioos:station:DISL:PPTA:1,2019-08-02T06:04:00Z,30.2791,-87.5561,79.78,11111222 
DISL,ioos:station:DISL:PPTA:1,2019-08-02T07:04:00Z,30.2791,-87.5561,81.1,11111222 
DISL,ioos:station:DISL:PPTA:1,2019-08-02T08:04:00Z,30.2791,-87.5561,81.2,11111222 
DISL,ioos:station:DISL:PPTA:1,2019-08-02T09:04:00Z,30.2791,-87.5561,85.4,11111222 
DISL,ioos:station:DISL:PPTA:1,2019-08-02T10:04:00Z,30.2791,-87.5561,86.3,11111222 
DISL,ioos:station:DISL:PPTA:1,2019-08-02T11:04:00Z,30.2791,-87.5561,79.44,11111222 
DISL,ioos:station:DISL:PPTA:1,2019-08-02T12:04:00Z,30.2791,-87.5561,75.13,11111222 
DISL,ioos:station:DISL:PPTA:1,2019-08-02T13:04:00Z,30.2791,-87.5561,72.75,11111222 
DISL,ioos:station:DISL:PPTA:1,2019-08-02T14:04:00Z,30.2791,-87.5561,77.37,11111222 
DISL,ioos:station:DISL:PPTA:1,2019-08-02T15:04:00Z,30.2791,-87.5561,68.92,11111222 
DISL,ioos:station:DISL:PPTA:1,2019-08-02T16:04:00Z,30.2791,-87.5561,67.94,11111222 
DISL,ioos:station:DISL:PPTA:1,2019-08-02T17:04:00Z,30.2791,-87.5561,65.15,11111222 
DISL,ioos:station:DISL:PPTA:1,2019-08-02T18:04:00Z,30.2791,-87.5561,60.86,11111222 
DISL,ioos:station:DISL:PPTA:1,2019-08-02T19:04:00Z,30.2791,-87.5561,72.5,11111222 
DISL,ioos:station:DISL:PPTA:1,2019-08-02T20:04:00Z,30.2791,-87.5561,59.26,11111222 
DISL,ioos:station:DISL:PPTA:1,2019-08-02T21:04:00Z,30.2791,-87.5561,63.49,11111222 
DISL,ioos:station:DISL:PPTA:1,2019-08-02T22:04:00Z,30.2791,-87.5561,67.82,11111222 
DISL,ioos:station:DISL:PPTA:1,2019-08-02T23:04:00Z,30.2791,-87.5561,71.35,11111222 
DISL,ioos:station:DISL:PPTA:1,2019-08-03T00:04:00Z,30.2791,-87.5561,75.78,11111222 
DISL,ioos:station:DISL:PPTA:1,2019-08-03T01:04:00Z,30.2791,-87.5561,76.35,11111222 
DISL,ioos:station:DISL:PPTA:1,2019-08-03T02:04:00Z,30.2791,-87.5561,80.0,11111222 
DISL,ioos:station:DISL:PPTA:1,2019-08-03T03:04:00Z,30.2791,-87.5561,85.6,11111222 
DISL,ioos:station:DISL:PPTA:1,2019-08-03T04:04:00Z,30.2791,-87.5561,85.9,11111222 
DISL,ioos:station:DISL:PPTA:1,2019-08-03T05:04:00Z,30.2791,-87.5561,86.0,11111222 
DISL,ioos:station:DISL:PPTA:1,2019-08-03T06:04:00Z,30.2791,-87.5561,88.3,11111222 
DISL,ioos:station:DISL:PPTA:1,2019-08-03T07:04:00Z,30.2791,-87.5561,90.2,11111222 
DISL,ioos:station:DISL:PPTA:1,2019-08-03T08:04:00Z,30.2791,-87.5561,90.5,11111222 
DISL,ioos:station:DISL:PPTA:1,2019-08-03T09:04:00Z,30.2791,-87.5561,92.7,11111222 
DISL,ioos:station:DISL:PPTA:1,2019-08-03T09:34:00Z,30.2791,-87.5561,92.8,11111222 
DISL,ioos:station:DISL:PPTA:1,2019-08-03T11:04:00Z,30.2791,-87.5561,94.1,11111222 
DISL,ioos:station:DISL:PPTA:1,2019-08-03T12:04:00Z,30.2791,-87.5561,93.7,11111222 
DISL,ioos:station:DISL:PPTA:1,2019-08-03T13:04:00Z,30.2791,-87.5561,89.3,11111222 
DISL,ioos:station:DISL:PPTA:1,2019-08-03T14:04:00Z,30.2791,-87.5561,79.93,11111222 
DISL,ioos:station:DISL:PPTA:1,2019-08-03T15:04:00Z,30.2791,-87.5561,67.95,11111222 
DISL,ioos:station:DISL:PPTA:1,2019-08-03T16:04:00Z,30.2791,-87.5561,65.13,11111222 
DISL,ioos:station:DISL:PPTA:1,2019-08-03T17:04:00Z,30.2791,-87.5561,66.42,11111222 
DISL,ioos:station:DISL:PPTA:1,2019-08-03T18:04:00Z,30.2791,-87.5561,65.0,11111222 
DISL,ioos:station:DISL:PPTA:1,2019-08-03T19:04:00Z,30.2791,-87.5561,60.04,11111222 
DISL,ioos:station:DISL:PPTA:1,2019-08-03T20:04:00Z,30.2791,-87.5561,64.67,11111222 
DISL,ioos:station:DISL:PPTA:1,2019-08-03T21:04:00Z,30.2791,-87.5561,62.71,11111222 
DISL,ioos:station:DISL:PPTA:1,2019-08-03T22:04:00Z,30.2791,-87.5561,66.88,11111222 
DISL,ioos:station:DISL:PPTA:1,2019-08-03T23:04:00Z,30.2791,-87.5561,62.33,11111222 
DISL,ioos:station:DISL:PPTA:1,2019-08-04T00:04:00Z,30.2791,-87.5561,73.93,11111222 
DISL,ioos:station:DISL:PPTA:1,2019-08-04T01:04:00Z,30.2791,-87.5561,79.35,11111222 
DISL,ioos:station:DISL:PPTA:1,2019-08-04T02:04:00Z,30.2791,-87.5561,78.08,11111222 
DISL,ioos:station:DISL:PPTA:1,2019-08-04T03:04:00Z,30.2791,-87.5561,76.78,11111222 
DISL,ioos:station:DISL:PPTA:1,2019-08-04T04:04:00Z,30.2791,-87.5561,85.7,11111222 
DISL,ioos:station:DISL:PPTA:1,2019-08-04T05:04:00Z,30.2791,-87.5561,84.8,11111222 
DISL,ioos:station:DISL:PPTA:1,2019-08-04T06:04:00Z,30.2791,-87.5561,85.4,11111222 
DISL,ioos:station:DISL:PPTA:1,2019-08-04T07:04:00Z,30.2791,-87.5561,90.7,11111222 
DISL,ioos:station:DISL:PPTA:1,2019-08-04T08:04:00Z,30.2791,-87.5561,92.0,11111222 
DISL,ioos:station:DISL:PPTA:1,2019-08-04T09:04:00Z,30.2791,-87.5561,92.3,11111222 
DISL,ioos:station:DISL:PPTA:1,2019-08-04T10:04:00Z,30.2791,-87.5561,92.2,11111222 
DISL,ioos:station:DISL:PPTA:1,2019-08-04T11:04:00Z,30.2791,-87.5561,92.2,11111222 
DISL,ioos:station:DISL:PPTA:1,2019-08-04T12:04:00Z,30.2791,-87.5561,86.9,11111222 
DISL,ioos:station:DISL:PPTA:1,2019-08-04T13:04:00Z,30.2791,-87.5561,87.4,11111222 
DISL,ioos:station:DISL:PPTA:1,2019-08-04T14:04:00Z,30.2791,-87.5561,86.5,11111222 
DISL,ioos:station:DISL:PPTA:1,2019-08-04T15:04:00Z,30.2791,-87.5561,82.6,11111222 
DISL,ioos:station:DISL:PPTA:1,2019-08-04T16:04:00Z,30.2791,-87.5561,76.98,11111222 
DISL,ioos:station:DISL:PPTA:1,2019-08-04T17:04:00Z,30.2791,-87.5561,85.0,11111222 
DISL,ioos:station:DISL:PPTA:1,2019-08-04T18:04:00Z,30.2791,-87.5561,75.89,11111222 
DISL,ioos:station:DISL:PPTA:1,2019-08-04T19:04:00Z,30.2791,-87.5561,84.7,11111222 
DISL,ioos:station:DISL:PPTA:1,2019-08-04T20:04:00Z,30.2791,-87.5561,78.42,11111222 
DISL,ioos:station:DISL:PPTA:1,2019-08-04T21:04:00Z,30.2791,-87.5561,69.01,11111222 
DISL,ioos:station:DISL:PPTA:1,2019-08-04T22:03:00Z,30.2791,-87.5561,71.73,11111222 
DISL,ioos:station:DISL:PPTA:1,2019-08-04T23:03:00Z,30.2791,-87.5561,69.78,11111222 
DISL,ioos:station:DISL:PPTA:1,2019-08-05T00:03:00Z,30.2791,-87.5561,73.25,11111222 
DISL,ioos:station:DISL:PPTA:1,2019-08-05T01:03:00Z,30.2791,-87.5561,75.64,11111222 
DISL,ioos:station:DISL:PPTA:1,2019-08-05T02:03:00Z,30.2791,-87.5561,78.7,11111222 
DISL,ioos:station:DISL:PPTA:1,2019-08-05T03:03:00Z,30.2791,-87.5561,78.12,11111222 
DISL,ioos:station:DISL:PPTA:1,2019-08-05T04:03:00Z,30.2791,-87.5561,83.8,11111222 
DISL,ioos:station:DISL:PPTA:1,2019-08-05T05:03:00Z,30.2791,-87.5561,85.0,11111222 
DISL,ioos:station:DISL:PPTA:1,2019-08-05T06:03:00Z,30.2791,-87.5561,85.9,11111222 
DISL,ioos:station:DISL:PPTA:1,2019-08-05T07:03:00Z,30.2791,-87.5561,84.7,11111222 
DISL,ioos:station:DISL:PPTA:1,2019-08-05T08:03:00Z,30.2791,-87.5561,88.8,11111222 
DISL,ioos:station:DISL:PPTA:1,2019-08-05T09:03:00Z,30.2791,-87.5561,88.6,11111222 
DISL,ioos:station:DISL:PPTA:1,2019-08-05T10:03:00Z,30.2791,-87.5561,91.6,11111222 
DISL,ioos:station:DISL:PPTA:1,2019-08-05T11:03:00Z,30.2791,-87.5561,91.7,11111222 
DISL,ioos:station:DISL:PPTA:1,2019-08-05T12:03:00Z,30.2791,-87.5561,93.0,11111222 
DISL,ioos:station:DISL:PPTA:1,2019-08-05T13:03:00Z,30.2791,-87.5561,94.8,11111222 
DISL,ioos:station:DISL:PPTA:1,2019-08-05T14:03:00Z,30.2791,-87.5561,95.6,11111222 
DISL,ioos:station:DISL:PPTA:1,2019-08-05T15:03:00Z,30.2791,-87.5561,92.1,11111222 
DISL,ioos:station:DISL:PPTA:1,2019-08-05T16:03:00Z,30.2791,-87.5561,84.9,11111222 
DISL,ioos:station:DISL:PPTA:1,2019-08-05T17:03:00Z,30.2791,-87.5561,88.0,11111222 
DISL,ioos:station:DISL:PPTA:1,2019-08-05T18:03:00Z,30.2791,-87.5561,80.1,11111222 
DISL,ioos:station:DISL:PPTA:1,2019-08-05T19:03:00Z,30.2791,-87.5561,78.27,11111222 
DISL,ioos:station:DISL:PPTA:1,2019-08-05T20:03:00Z,30.2791,-87.5561,73.56,11111222 
DISL,ioos:station:DISL:PPTA:1,2019-08-05T21:03:00Z,30.2791,-87.5561,72.96,11111222 
DISL,ioos:station:DISL:PPTA:1,2019-08-05T22:03:00Z,30.2791,-87.5561,73.04,11111222 
DISL,ioos:station:DISL:PPTA:1,2019-08-05T23:03:00Z,30.2791,-87.5561,79.45,11111222 
DISL,ioos:station:DISL:PPTA:1,2019-08-06T00:03:00Z,30.2791,-87.5561,77.49,11111222 
DISL,ioos:station:DISL:PPTA:1,2019-08-06T01:03:00Z,30.2791,-87.5561,79.69,11111222 
DISL,ioos:station:DISL:PPTA:1,2019-08-06T02:03:00Z,30.2791,-87.5561,83.0,11111222 
DISL,ioos:station:DISL:PPTA:1,2019-08-06T03:03:00Z,30.2791,-87.5561,84.7,11111222 
DISL,ioos:station:DISL:PPTA:1,2019-08-06T04:03:00Z,30.2791,-87.5561,82.4,11111222 
DISL,ioos:station:DISL:PPTA:1,2019-08-06T05:04:00Z,30.2791,-87.5561,84.7,11111222 
DISL,ioos:station:DISL:PPTA:1,2019-08-06T06:03:00Z,30.2791,-87.5561,82.4,11111222 
DISL,ioos:station:DISL:PPTA:1,2019-08-06T07:03:00Z,30.2791,-87.5561,85.8,11111222 
DISL,ioos:station:DISL:PPTA:1,2019-08-06T08:04:00Z,30.2791,-87.5561,88.7,11111222 
DISL,ioos:station:DISL:PPTA:1,2019-08-06T09:03:00Z,30.2791,-87.5561,89.9,11111222 
DISL,ioos:station:DISL:PPTA:1,2019-08-06T10:04:00Z,30.2791,-87.5561,92.4,11111222 
DISL,ioos:station:DISL:PPTA:1,2019-08-06T11:03:00Z,30.2791,-87.5561,92.6,11111222 
DISL,ioos:station:DISL:PPTA:1,2019-08-06T12:04:00Z,30.2791,-87.5561,94.1,11111222 
DISL,ioos:station:DISL:PPTA:1,2019-08-06T13:04:00Z,30.2791,-87.5561,92.9,11111222 
DISL,ioos:station:DISL:PPTA:1,2019-08-06T14:04:00Z,30.2791,-87.5561,89.0,11111222 
DISL,ioos:station:DISL:PPTA:1,2019-08-06T15:03:00Z,30.2791,-87.5561,87.4,11111222 
DISL,ioos:station:DISL:PPTA:1,2019-08-06T16:03:00Z,30.2791,-87.5561,83.7,11111222 
DISL,ioos:station:DISL:PPTA:1,2019-08-06T17:03:00Z,30.2791,-87.5561,72.48,11111222 
DISL,ioos:station:DISL:PPTA:1,2019-08-06T18:03:00Z,30.2791,-87.5561,66.6,11111222 
DISL,ioos:station:DISL:PPTA:1,2019-08-06T19:04:00Z,30.2791,-87.5561,74.49,11111222 
DISL,ioos:station:DISL:PPTA:1,2019-08-06T20:04:00Z,30.2791,-87.5561,77.15,11111222 
DISL,ioos:station:DISL:PPTA:1,2019-08-06T21:04:00Z,30.2791,-87.5561,76.54,11111222 
DISL,ioos:station:DISL:PPTA:1,2019-08-06T22:04:00Z,30.2791,-87.5561,85.6,11111222 
DISL,ioos:station:DISL:PPTA:1,2019-08-06T23:03:00Z,30.2791,-87.5561,76.69,11111222 
DISL,ioos:station:DISL:PPTA:1,2019-08-07T00:03:00Z,30.2791,-87.5561,77.44,11111222 
DISL,ioos:station:DISL:PPTA:1,2019-08-07T01:04:00Z,30.2791,-87.5561,80.1,11111222 
DISL,ioos:station:DISL:PPTA:1,2019-08-07T02:03:00Z,30.2791,-87.5561,84.3,11111222 
DISL,ioos:station:DISL:PPTA:1,2019-08-07T03:03:00Z,30.2791,-87.5561,80.6,11111222 
DISL,ioos:station:DISL:PPTA:1,2019-08-07T04:04:00Z,30.2791,-87.5561,83.4,11111222 
DISL,ioos:station:DISL:PPTA:1,2019-08-07T05:04:00Z,30.2791,-87.5561,83.9,11111222 
DISL,ioos:station:DISL:PPTA:1,2019-08-07T06:04:00Z,30.2791,-87.5561,85.1,11111222 
DISL,ioos:station:DISL:PPTA:1,2019-08-07T07:04:00Z,30.2791,-87.5561,87.6,11111222 
DISL,ioos:station:DISL:PPTA:1,2019-08-07T08:03:00Z,30.2791,-87.5561,85.5,11111222 
DISL,ioos:station:DISL:PPTA:1,2019-08-07T09:04:00Z,30.2791,-87.5561,88.0,11111222 
DISL,ioos:station:DISL:PPTA:1,2019-08-07T10:04:00Z,30.2791,-87.5561,90.4,11111222 
DISL,ioos:station:DISL:PPTA:1,2019-08-07T11:04:00Z,30.2791,-87.5561,91.4,11111222 
DISL,ioos:station:DISL:PPTA:1,2019-08-07T12:04:00Z,30.2791,-87.5561,85.4,11111222 
DISL,ioos:station:DISL:PPTA:1,2019-08-07T13:04:00Z,30.2791,-87.5561,78.6,11111222 
DISL,ioos:station:DISL:PPTA:1,2019-08-07T14:04:00Z,30.2791,-87.5561,81.3,11111222 
DISL,ioos:station:DISL:PPTA:1,2019-08-07T15:04:00Z,30.2791,-87.5561,78.56,11111222 
DISL,ioos:station:DISL:PPTA:1,2019-08-07T16:04:00Z,30.2791,-87.5561,76.9,11111222 
DISL,ioos:station:DISL:PPTA:1,2019-08-07T17:04:00Z,30.2791,-87.5561,78.73,11111222 
DISL,ioos:station:DISL:PPTA:1,2019-08-07T18:04:00Z,30.2791,-87.5561,80.3,11111222 
DISL,ioos:station:DISL:PPTA:1,2019-08-07T19:04:00Z,30.2791,-87.5561,72.48,11111222 
DISL,ioos:station:DISL:PPTA:1,2019-08-07T20:04:00Z,30.2791,-87.5561,64.74,11111222 
DISL,ioos:station:DISL:PPTA:1,2019-08-07T21:04:00Z,30.2791,-87.5561,70.87,11111222 
DISL,ioos:station:DISL:PPTA:1,2019-08-07T22:04:00Z,30.2791,-87.5561,76.63,11111222 
DISL,ioos:station:DISL:PPTA:1,2019-08-07T23:04:00Z,30.2791,-87.5561,75.48,11111222 
DISL,ioos:station:DISL:PPTA:1,2019-08-08T00:04:00Z,30.2791,-87.5561,81.3,11111222 
DISL,ioos:station:DISL:PPTA:1,2019-08-08T01:04:00Z,30.2791,-87.5561,81.0,11111222 
DISL,ioos:station:DISL:PPTA:1,2019-08-08T02:04:00Z,30.2791,-87.5561,83.4,11111222 
DISL,ioos:station:DISL:PPTA:1,2019-08-08T03:04:00Z,30.2791,-87.5561,84.1,11111222 
DISL,ioos:station:DISL:PPTA:1,2019-08-08T04:04:00Z,30.2791,-87.5561,87.0,11111222 
DISL,ioos:station:DISL:PPTA:1,2019-08-08T05:04:00Z,30.2791,-87.5561,84.8,11111222 
DISL,ioos:station:DISL:PPTA:1,2019-08-08T06:04:00Z,30.2791,-87.5561,87.0,11111222 
DISL,ioos:station:DISL:PPTA:1,2019-08-08T07:04:00Z,30.2791,-87.5561,87.0,11111222 
DISL,ioos:station:DISL:PPTA:1,2019-08-08T08:04:00Z,30.2791,-87.5561,88.0,11111222 
DISL,ioos:station:DISL:PPTA:1,2019-08-08T09:04:00Z,30.2791,-87.5561,86.3,11111222 
DISL,ioos:station:DISL:PPTA:1,2019-08-08T10:04:00Z,30.2791,-87.5561,85.8,11111222 
DISL,ioos:station:DISL:PPTA:1,2019-08-08T11:04:00Z,30.2791,-87.5561,86.4,11111222 
DISL,ioos:station:DISL:PPTA:1,2019-08-08T12:04:00Z,30.2791,-87.5561,86.4,11111222 
DISL,ioos:station:DISL:PPTA:1,2019-08-08T13:04:00Z,30.2791,-87.5561,85.3,11111222 
DISL,ioos:station:DISL:PPTA:1,2019-08-08T14:04:00Z,30.2791,-87.5561,82.9,11111222 
DISL,ioos:station:DISL:PPTA:1,2019-08-08T15:04:00Z,30.2791,-87.5561,76.9,11111222 
DISL,ioos:station:DISL:PPTA:1,2019-08-08T16:04:00Z,30.2791,-87.5561,73.42,11111222 
DISL,ioos:station:DISL:PPTA:1,2019-08-08T17:04:00Z,30.2791,-87.5561,74.85,11111222 
DISL,ioos:station:DISL:PPTA:1,2019-08-08T18:04:00Z,30.2791,-87.5561,76.26,11111222 
DISL,ioos:station:DISL:PPTA:1,2019-08-08T19:04:00Z,30.2791,-87.5561,73.04,11111222 
DISL,ioos:station:DISL:PPTA:1,2019-08-08T20:04:00Z,30.2791,-87.5561,79.24,11111222 
DISL,ioos:station:DISL:PPTA:1,2019-08-08T21:04:00Z,30.2791,-87.5561,76.53,11111222 
DISL,ioos:station:DISL:PPTA:1,2019-08-08T22:04:00Z,30.2791,-87.5561,76.83,11111222 
DISL,ioos:station:DISL:PPTA:1,2019-08-08T23:04:00Z,30.2791,-87.5561,75.82,11111222 
DISL,ioos:station:DISL:PPTA:1,2019-08-09T00:04:00Z,30.2791,-87.5561,79.97,11111222 
DISL,ioos:station:DISL:PPTA:1,2019-08-09T01:04:00Z,30.2791,-87.5561,81.9,11111222 
DISL,ioos:station:DISL:PPTA:1,2019-08-09T02:04:00Z,30.2791,-87.5561,81.4,11111222 
DISL,ioos:station:DISL:PPTA:1,2019-08-09T03:04:00Z,30.2791,-87.5561,84.7,11111222 
DISL,ioos:station:DISL:PPTA:1,2019-08-09T04:04:00Z,30.2791,-87.5561,83.6,11111222 
DISL,ioos:station:DISL:PPTA:1,2019-08-09T05:04:00Z,30.2791,-87.5561,83.4,11111222 
DISL,ioos:station:DISL:PPTA:1,2019-08-09T06:04:00Z,30.2791,-87.5561,86.1,11111222 
DISL,ioos:station:DISL:PPTA:1,2019-08-09T07:04:00Z,30.2791,-87.5561,89.4,11111222 
DISL,ioos:station:DISL:PPTA:1,2019-08-09T08:04:00Z,30.2791,-87.5561,91.1,11111222 
DISL,ioos:station:DISL:PPTA:1,2019-08-09T09:04:00Z,30.2791,-87.5561,92.0,11111222 
DISL,ioos:station:DISL:PPTA:1,2019-08-09T10:04:00Z,30.2791,-87.5561,92.1,11111222 
DISL,ioos:station:DISL:PPTA:1,2019-08-09T11:04:00Z,30.2791,-87.5561,92.2,11111222 
DISL,ioos:station:DISL:PPTA:1,2019-08-09T12:04:00Z,30.2791,-87.5561,87.5,11111222 
DISL,ioos:station:DISL:PPTA:1,2019-08-09T13:04:00Z,30.2791,-87.5561,85.9,11111222 
DISL,ioos:station:DISL:PPTA:1,2019-08-09T14:04:00Z,30.2791,-87.5561,80.0,11111222 
DISL,ioos:station:DISL:PPTA:1,2019-08-09T15:04:00Z,30.2791,-87.5561,76.19,11111222 
DISL,ioos:station:DISL:PPTA:1,2019-08-09T16:04:00Z,30.2791,-87.5561,70.93,11111222 
DISL,ioos:station:DISL:PPTA:1,2019-08-09T17:04:00Z,30.2791,-87.5561,72.57,11111222 
DISL,ioos:station:DISL:PPTA:1,2019-08-09T18:04:00Z,30.2791,-87.5561,76.72,11111222 
DISL,ioos:station:DISL:PPTA:1,2019-08-09T19:04:00Z,30.2791,-87.5561,78.07,11111222 
DISL,ioos:station:DISL:PPTA:1,2019-08-09T20:04:00Z,30.2791,-87.5561,73.56,11111222 
DISL,ioos:station:DISL:PPTA:1,2019-08-09T21:04:00Z,30.2791,-87.5561,73.18,11111222 
DISL,ioos:station:DISL:PPTA:1,2019-08-09T22:04:00Z,30.2791,-87.5561,74.14,11111222 
DISL,ioos:station:DISL:PPTA:1,2019-08-09T23:04:00Z,30.2791,-87.5561,76.53,11111222 
DISL,ioos:station:DISL:PPTA:1,2019-08-10T00:04:00Z,30.2791,-87.5561,84.1,11111222 
DISL,ioos:station:DISL:PPTA:1,2019-08-10T01:04:00Z,30.2791,-87.5561,78.64,11111222 
DISL,ioos:station:DISL:PPTA:1,2019-08-10T02:04:00Z,30.2791,-87.5561,80.8,11111222 
DISL,ioos:station:DISL:PPTA:1,2019-08-10T03:04:00Z,30.2791,-87.5561,82.9,11111222 
DISL,ioos:station:DISL:PPTA:1,2019-08-10T04:04:00Z,30.2791,-87.5561,84.6,11111222 
DISL,ioos:station:DISL:PPTA:1,2019-08-10T05:04:00Z,30.2791,-87.5561,88.3,11111222 
DISL,ioos:station:DISL:PPTA:1,2019-08-10T06:04:00Z,30.2791,-87.5561,88.5,11111222 
DISL,ioos:station:DISL:PPTA:1,2019-08-10T07:04:00Z,30.2791,-87.5561,90.6,11111222 
DISL,ioos:station:DISL:PPTA:1,2019-08-10T08:04:00Z,30.2791,-87.5561,89.9,11111222 
DISL,ioos:station:DISL:PPTA:1,2019-08-10T09:04:00Z,30.2791,-87.5561,91.7,11111222 
DISL,ioos:station:DISL:PPTA:1,2019-08-10T10:04:00Z,30.2791,-87.5561,93.5,11111222 
DISL,ioos:station:DISL:PPTA:1,2019-08-10T11:04:00Z,30.2791,-87.5561,93.7,11111222 
DISL,ioos:station:DISL:PPTA:1,2019-08-10T12:04:00Z,30.2791,-87.5561,92.9,11111222 
DISL,ioos:station:DISL:PPTA:1,2019-08-10T13:04:00Z,30.2791,-87.5561,83.7,11111222 
DISL,ioos:station:DISL:PPTA:1,2019-08-10T14:04:00Z,30.2791,-87.5561,79.67,11111222 
DISL,ioos:station:DISL:PPTA:1,2019-08-10T15:04:00Z,30.2791,-87.5561,75.88,11111222 
DISL,ioos:station:DISL:PPTA:1,2019-08-10T16:04:00Z,30.2791,-87.5561,75.07,11111222 
DISL,ioos:station:DISL:PPTA:1,2019-08-10T18:04:00Z,30.2791,-87.5561,78.88,11111222 
DISL,ioos:station:DISL:PPTA:1,2019-08-10T19:04:00Z,30.2791,-87.5561,80.1,11111222 
DISL,ioos:station:DISL:PPTA:1,2019-08-10T20:04:00Z,30.2791,-87.5561,81.0,11111222 
DISL,ioos:station:DISL:PPTA:1,2019-08-10T21:04:00Z,30.2791,-87.5561,84.8,11111222 
DISL,ioos:station:DISL:PPTA:1,2019-08-10T22:04:00Z,30.2791,-87.5561,76.52,11111222 
DISL,ioos:station:DISL:PPTA:1,2019-08-10T23:04:00Z,30.2791,-87.5561,81.0,11111222 
DISL,ioos:station:DISL:PPTA:1,2019-08-11T00:04:00Z,30.2791,-87.5561,84.3,11111222 
DISL,ioos:station:DISL:PPTA:1,2019-08-11T01:04:00Z,30.2791,-87.5561,86.6,11111222 
DISL,ioos:station:DISL:PPTA:1,2019-08-11T02:04:00Z,30.2791,-87.5561,86.6,11111222 
DISL,ioos:station:DISL:PPTA:1,2019-08-11T03:04:00Z,30.2791,-87.5561,87.1,11111222 
DISL,ioos:station:DISL:PPTA:1,2019-08-11T04:04:00Z,30.2791,-87.5561,86.1,11111222 
DISL,ioos:station:DISL:PPTA:1,2019-08-11T05:04:00Z,30.2791,-87.5561,88.0,11111222 
DISL,ioos:station:DISL:PPTA:1,2019-08-11T06:04:00Z,30.2791,-87.5561,88.8,11111222 
DISL,ioos:station:DISL:PPTA:1,2019-08-11T07:04:00Z,30.2791,-87.5561,89.1,11111222 
DISL,ioos:station:DISL:PPTA:1,2019-08-11T08:04:00Z,30.2791,-87.5561,89.5,11111222 
DISL,ioos:station:DISL:PPTA:1,2019-08-11T09:04:00Z,30.2791,-87.5561,90.0,11111222 
DISL,ioos:station:DISL:PPTA:1,2019-08-11T10:04:00Z,30.2791,-87.5561,91.1,11111222 
DISL,ioos:station:DISL:PPTA:1,2019-08-11T11:04:00Z,30.2791,-87.5561,92.7,11111222 
DISL,ioos:station:DISL:PPTA:1,2019-08-11T12:04:00Z,30.2791,-87.5561,91.3,11111222 
DISL,ioos:station:DISL:PPTA:1,2019-08-11T13:04:00Z,30.2791,-87.5561,89.1,11111222 
DISL,ioos:station:DISL:PPTA:1,2019-08-11T14:04:00Z,30.2791,-87.5561,79.48,11111222 
DISL,ioos:station:DISL:PPTA:1,2019-08-11T15:04:00Z,30.2791,-87.5561,70.64,11111222 
DISL,ioos:station:DISL:PPTA:1,2019-08-11T16:04:00Z,30.2791,-87.5561,66.74,11111222 
DISL,ioos:station:DISL:PPTA:1,2019-08-11T17:04:00Z,30.2791,-87.5561,66.66,11111222 
DISL,ioos:station:DISL:PPTA:1,2019-08-11T18:04:00Z,30.2791,-87.5561,62.9,11111222 
DISL,ioos:station:DISL:PPTA:1,2019-08-11T19:04:00Z,30.2791,-87.5561,75.7,11111222 
DISL,ioos:station:DISL:PPTA:1,2019-08-11T20:04:00Z,30.2791,-87.5561,77.07,11111222 
DISL,ioos:station:DISL:PPTA:1,2019-08-11T21:04:00Z,30.2791,-87.5561,78.53,11111222 
DISL,ioos:station:DISL:PPTA:1,2019-08-11T22:04:00Z,30.2791,-87.5561,85.4,11111222 
DISL,ioos:station:DISL:PPTA:1,2019-08-11T23:04:00Z,30.2791,-87.5561,81.4,11111222 
DISL,ioos:station:DISL:PPTA:1,2019-08-12T00:04:00Z,30.2791,-87.5561,86.6,11111222 
DISL,ioos:station:DISL:PPTA:1,2019-08-12T01:04:00Z,30.2791,-87.5561,86.8,11111222 
DISL,ioos:station:DISL:PPTA:1,2019-08-12T02:04:00Z,30.2791,-87.5561,89.4,11111222 
DISL,ioos:station:DISL:PPTA:1,2019-08-12T03:04:00Z,30.2791,-87.5561,89.6,11111222 
DISL,ioos:station:DISL:PPTA:1,2019-08-12T04:04:00Z,30.2791,-87.5561,89.4,11111222 
DISL,ioos:station:DISL:PPTA:1,2019-08-12T05:04:00Z,30.2791,-87.5561,88.8,11111222 
DISL,ioos:station:DISL:PPTA:1,2019-08-12T06:04:00Z,30.2791,-87.5561,88.9,11111222 
DISL,ioos:station:DISL:PPTA:1,2019-08-12T07:04:00Z,30.2791,-87.5561,90.1,11111222 
DISL,ioos:station:DISL:PPTA:1,2019-08-12T08:04:00Z,30.2791,-87.5561,91.3,11111222 
DISL,ioos:station:DISL:PPTA:1,2019-08-12T10:04:00Z,30.2791,-87.5561,93.9,11111222 
DISL,ioos:station:DISL:PPTA:1,2019-08-12T11:04:00Z,30.2791,-87.5561,93.8,11111222 
DISL,ioos:station:DISL:PPTA:1,2019-08-12T12:04:00Z,30.2791,-87.5561,93.8,11111222 
DISL,ioos:station:DISL:PPTA:1,2019-08-12T13:04:00Z,30.2791,-87.5561,88.3,11111222 
DISL,ioos:station:DISL:PPTA:1,2019-08-12T14:04:00Z,30.2791,-87.5561,83.3,11111222 
DISL,ioos:station:DISL:PPTA:1,2019-08-12T15:04:00Z,30.2791,-87.5561,78.96,11111222 
DISL,ioos:station:DISL:PPTA:1,2019-08-12T16:04:00Z,30.2791,-87.5561,74.68,11111222 
DISL,ioos:station:DISL:PPTA:1,2019-08-12T17:04:00Z,30.2791,-87.5561,82.2,11111222 
DISL,ioos:station:DISL:PPTA:1,2019-08-12T18:04:00Z,30.2791,-87.5561,87.4,11111222 
DISL,ioos:station:DISL:PPTA:1,2019-08-12T19:04:00Z,30.2791,-87.5561,76.63,11111222 
DISL,ioos:station:DISL:PPTA:1,2019-08-12T20:04:00Z,30.2791,-87.5561,81.7,11111222 
DISL,ioos:station:DISL:PPTA:1,2019-08-12T21:04:00Z,30.2791,-87.5561,76.06,11111222 
DISL,ioos:station:DISL:PPTA:1,2019-08-12T22:04:00Z,30.2791,-87.5561,83.8,11111222 
DISL,ioos:station:DISL:PPTA:1,2019-08-12T23:04:00Z,30.2791,-87.5561,83.7,11111222 
DISL,ioos:station:DISL:PPTA:1,2019-08-13T00:04:00Z,30.2791,-87.5561,82.2,11111222 